[[{"header":{"parameterUnit":"m.s-1","parameterCategory":1,"la1":30.2991,"la2":30.254,"lo1":-89.0895,"lo2":-89.0444,"dy":0.0017,"dx":0.0017,"nx":28,"ny":28,"refTime":"2024-02-18T03:00:00:Z","depth":0,"parameterNumber":2,"parameterNumberName":"U-component_of_WINDS"},"data":[0,0,0,0,0,0,0,0,0,0,0,0,0,0,0,0,0,0,0,0,0,0,0,0,0,0,0,0,0,0,0,0,0,0,0,0,0,0,0,0,0,0,0,0,0,0,0,0,0,0,0,0,0,0,0,0,0,0,-2.6927,-2.6927,0,-2.6967,-2.6967,-2.6968,-2.6899,-2.6896,-2.6894,-2.6892,-2.6933,-2.6936,-2.6939,0,0,0,0,0,0,0,0,0,0,0,0,0,-2.679,-2.6793,-2.6927,-2.6927,-2.6928,-2.6967,-2.6967,-2.6968,-2.6899,-2.6896,-2.6893,-2.6891,-2.6932,-2.6936,-2.694,0,0,0,0,0,0,0,0,0,0,0,0,0,-2.6842,-2.6794,-2.6926,-2.6898,-2.6896,-2.6967,-2.6967,-2.6968,-2.69,-2.6896,-2.6893,-2.6889,-2.6931,-2.6935,-2.694,-2.7041,0,0,-2.6955,-2.6957,0,0,0,0,0,0,0,0,-2.6839,-2.6847,-2.6902,-2.69,-2.6898,-2.6924,-2.6934,-2.6992,-2.6901,-2.6898,-2.6892,-2.6888,-2.6933,-2.6937,-2.6953,-2.7042,-2.7044,-2.6956,-2.6959,-2.6961,-2.6962,0,0,0,0,0,0,0,-2.6835,-2.6845,-2.6942,-2.6903,-2.69,-2.6883,-2.6887,-2.6945,-2.6935,-2.6898,-2.6893,-2.6899,-2.6931,-2.6948,-2.6953,-2.7045,-2.6956,-2.696,-2.6963,-2.6965,-2.7219,-2.7223,0,0,0,0,0,0,-2.6835,-2.6842,-2.6941,-2.6944,-2.6859,-2.6888,-2.6892,-2.6919,-2.6934,-2.6933,-2.6902,-2.6896,-2.6941,-2.6947,-2.6954,-2.7073,-2.6961,-2.6965,-2.6968,-2.7215,-2.722,-2.7224,0,0,0,0,0,0,-2.6833,-2.6845,-2.694,-2.6892,-2.6902,-2.6894,-2.6925,-2.6922,-2.6939,-2.6937,-2.6935,-2.6921,-2.6939,-2.6947,-2.702,-2.7074,-2.6968,-2.6972,-2.7211,-2.7217,-2.7222,-2.7312,0,0,0,0,0,0,-2.6829,-2.6844,-2.6883,-2.6893,-2.6905,-2.7005,-2.6929,-2.6925,-2.6947,-2.694,-2.6954,-2.6953,-2.6937,-2.7013,-2.7025,-2.7079,-2.6976,-2.7206,-2.7213,-2.722,-2.7304,-2.732,-2.7334,0,0,0,0,0,-2.6824,-2.6906,-2.6885,-2.6897,-2.6953,-2.7008,-2.7015,-2.6995,-2.6952,-2.699,-2.6989,-2.6953,-2.7065,-2.7021,-2.7033,-2.709,-2.7202,-2.7211,-2.7219,-2.7298,-2.7317,-2.7333,0,0,0,0,0,0,-2.6903,-2.6907,-2.6883,-2.6971,-2.699,-2.6996,-2.7044,-2.7016,-2.7047,-2.7038,-2.7011,-2.7015,-2.7093,-2.7098,-2.7048,-2.7187,-2.7127,-2.7138,-2.7182,-2.72,-2.7215,-2.7213,-2.698,0,0,0,0,0,-2.693,-2.6975,-2.6976,-2.7053,-2.7064,-2.7053,-2.7076,-2.7058,-2.7076,-2.7084,-2.7088,-2.7107,-2.7146,-2.7173,-2.7209,-2.7304,-2.7306,-2.7349,-2.7363,-2.7375,-2.7387,-2.7437,-2.7456,-2.7252,-2.7252,-2.7252,0,0,-2.6987,-2.6995,-2.7025,-2.7069,-2.7082,-2.7129,-2.706,-2.7112,-2.7147,-2.7092,-2.7161,-2.7164,-2.7183,-2.7267,-2.7305,-2.7274,-2.7443,-2.7386,-2.7396,-2.7401,-2.7448,-2.7468,-2.7485,-2.7258,-2.7257,-2.7256,0,0,-2.7116,-2.7126,-2.7192,-2.7206,-2.7225,-2.7217,-2.7233,-2.7244,-2.7244,-2.7313,-2.7272,-2.7312,-2.7381,-2.7397,-2.7414,-2.7547,-2.7516,-2.756,-2.7638,-2.7688,-2.7704,-2.7718,-2.7767,-2.7784,-2.757,-2.757,-2.757,0,-2.7186,-2.7255,-2.723,-2.7285,-2.7306,-2.7258,-2.7325,-2.7339,-2.7369,-2.7385,-2.735,-2.7435,-2.7444,-2.7532,-2.7564,-2.7579,-2.7596,-2.7559,-2.7703,-2.7717,-2.773,-2.7776,-2.7795,-2.7576,-2.7575,-2.7574,-2.7574,0,-2.7339,-2.7388,-2.7439,-2.747,-2.7495,-2.7556,-2.754,-2.757,-2.7549,-2.7545,-2.7615,-2.7624,-2.7662,-2.7681,-2.7661,-2.7765,-2.7746,-2.7708,-2.7646,-2.7756,-2.7799,-2.7816,-2.7583,-2.7581,-2.758,-2.7579,0,0,-2.7521,-2.7536,-2.7556,-2.7569,-2.7586,-2.7623,-2.7681,-2.7718,-2.7744,-2.7766,-2.7815,-2.7873,-2.7838,-2.7857,-2.7838,-2.7882,-2.7989,-2.7838,-2.7838,-2.7867,-2.8105,-2.8135,-2.8156,-2.7966,-2.797,-2.7972,-2.8104,0,-2.765,-2.7752,-2.773,-2.7829,-2.7874,-2.7828,-2.7879,-2.7895,-2.7892,-2.7929,-2.7925,-2.7968,-2.7917,-2.7928,-2.7969,-2.7967,-2.8036,-2.7957,-2.8012,-2.8015,-2.8011,-2.8178,-2.8211,-2.8335,-2.812,-2.8123,-2.8125,0,-2.7815,-2.7844,-2.7948,-2.7958,-2.7976,-2.8022,-2.8054,-2.809,-2.8107,-2.8101,-2.8122,-2.8095,-2.8153,-2.8089,-2.8168,-2.8115,-2.8136,-2.8138,-2.8142,-2.8148,-2.8078,-2.8191,-2.8373,-2.8393,-2.8151,-2.8149,-2.8147,0,-2.794,-2.8004,-2.8074,-2.8087,-2.81,-2.8134,-2.8141,-2.8154,-2.8177,-2.8204,-2.8219,-2.8253,-2.8272,-2.8298,-2.8281,-2.8236,-2.8363,-2.8298,-2.8361,-2.8362,-2.8392,-2.8391,-2.8582,-2.8402,-2.8402,-2.8402,-2.8401,0,-2.8088,-2.8154,-2.813,-2.8174,-2.8246,-2.822,-2.8292,-2.8294,-2.8306,-2.8349,-2.831,-2.8351,-2.8325,-2.8363,-2.835,-2.8418,-2.8426,-2.8424,-2.842,-2.8429,-2.8429,-2.8444,-2.8435,-2.8407,-2.8405,-2.8404,-2.8404,0,-2.824,-2.8227,-2.8301,-2.8307,-2.831,-2.8363,-2.8368,-2.8408,-2.8401,-2.8456,-2.8468,-2.8457,-2.8501,-2.8485,-2.8532,-2.8522,-2.861,-2.8593,-2.8605,-2.8601,-2.8666,-2.8661,-2.8875,-2.8902,-2.8703,-2.8705,-2.8707,0,-2.8337,-2.8386,-2.8397,-2.8423,-2.8433,-2.8476,-2.8499,-2.8475,-2.8501,-2.8523,-2.8561,-2.8601,-2.8632,-2.8704,-2.8701,-2.8736,-2.8721,-2.8794,-2.8726,-2.8734,-2.8724,-2.8722,-2.8728,-2.8808,-2.881,-2.8812,-2.8814,0,-2.851,-2.8501,-2.8536,-2.857,-2.8599,-2.8624,-2.8646,-2.8669,-2.8646,-2.8677,-2.8721,-2.8745,-2.8792,-2.8833,-2.8864,-2.8871,-2.8839,-2.8835,-2.8851,-2.8862,-2.8867,-2.8867,-2.8643,-2.883,-2.8829,-2.8828,-2.8827,-2.8826,-2.8638,-2.868,-2.8695,-2.8736,-2.8749,-2.877,-2.8809,-2.8806,-2.8843,-2.888,-2.8863,-2.8914,-2.8928,-2.8968,-2.8978,-2.9018,-2.899,-2.9014,-2.902,-2.9027,-2.9036,-2.8859,-2.9023,-2.9023,-2.9022,-2.9022,-2.9021,0,-2.8811,-2.8818,-2.8855,-2.8887,-2.8919,-2.8885,-2.8907,-2.8936,-2.8982,-2.8998,-2.9029,-2.908,-2.9119,-2.9118,-2.9154,-2.9186,-2.9172,-2.9196,-2.9194,-2.9197,-2.9058,-2.9041,-2.9206,-2.9206,-2.9206,-2.9206,-2.9206,-2.9206,-2.8905,-2.8975,-2.8967,-2.9043,-2.9049,-2.9099,-2.9115,-2.9134,-2.9146,-2.9205,-2.9237,-2.9236,-2.9245,-2.9281,-2.9315,-2.9314,-2.9329,-2.936,-2.9353,-2.9224,-2.9206,-2.9189,-2.9173,-2.9363,-2.9363,-2.9488,-2.9489,-2.949]},{"header":{"parameterUnit":"m.s-1","parameterCategory":1,"la1":30.2991,"la2":30.254,"lo1":-89.0895,"lo2":-89.0444,"dy":0.0017,"dx":0.0017,"nx":28,"ny":28,"refTime":"2024-02-18T03:00:00:Z","depth":0,"parameterNumber":3,"parameterNumberName":"V-component_of_WINDS"},"data":[0,0,0,0,0,0,0,0,0,0,0,0,0,0,0,0,0,0,0,0,0,0,0,0,0,0,0,0,0,0,0,0,0,0,0,0,0,0,0,0,0,0,0,0,0,0,0,0,0,0,0,0,0,0,0,0,0,0,-3.4318,-3.4318,0,-3.4399,-3.4399,-3.44,-3.4375,-3.4374,-3.4372,-3.437,-3.4449,-3.4453,-3.4456,0,0,0,0,0,0,0,0,0,0,0,0,0,-3.4137,-3.414,-3.4317,-3.4319,-3.432,-3.4398,-3.4399,-3.4401,-3.4376,-3.4374,-3.4372,-3.437,-3.4448,-3.4452,-3.4457,0,0,0,0,0,0,0,0,0,0,0,0,0,-3.4216,-3.4141,-3.4317,-3.4317,-3.4317,-3.4398,-3.44,-3.4401,-3.4376,-3.4374,-3.4371,-3.4369,-3.4446,-3.4452,-3.4457,-3.4542,0,0,-3.4474,-3.4476,0,0,0,0,0,0,0,0,-3.4212,-3.4223,-3.4316,-3.4317,-3.4318,-3.4374,-3.4364,-3.4448,-3.4377,-3.4354,-3.437,-3.4367,-3.4426,-3.4433,-3.4454,-3.4546,-3.4549,-3.4474,-3.4478,-3.448,-3.4482,0,0,0,0,0,0,0,-3.4206,-3.4219,-3.4349,-3.4317,-3.4318,-3.4311,-3.4319,-3.438,-3.4403,-3.4355,-3.4354,-3.4364,-3.4426,-3.4448,-3.4455,-3.455,-3.4474,-3.4479,-3.4483,-3.4485,-3.4715,-3.4718,0,0,0,0,0,0,-3.42,-3.4215,-3.4347,-3.4352,-3.4258,-3.4316,-3.4326,-3.4359,-3.4402,-3.4407,-3.4366,-3.4363,-3.444,-3.4449,-3.4458,-3.456,-3.448,-3.4485,-3.4488,-3.4713,-3.4716,-3.4719,0,0,0,0,0,0,-3.4197,-3.4213,-3.4344,-3.4283,-3.4299,-3.4322,-3.4359,-3.4362,-3.4384,-3.441,-3.4414,-3.4385,-3.4439,-3.445,-3.4522,-3.4563,-3.4488,-3.4493,-3.4709,-3.4714,-3.4718,-3.4766,0,0,0,0,0,0,-3.4192,-3.4211,-3.4245,-3.4284,-3.4302,-3.4408,-3.4362,-3.4365,-3.4394,-3.439,-3.4429,-3.4433,-3.4437,-3.4513,-3.4527,-3.4569,-3.4497,-3.4706,-3.4711,-3.4716,-3.4761,-3.4771,-3.478,0,0,0,0,0,-3.4185,-3.4255,-3.4247,-3.4263,-3.4345,-3.441,-3.442,-3.4425,-3.4398,-3.4431,-3.4448,-3.4432,-3.4556,-3.4521,-3.4536,-3.458,-3.4703,-3.471,-3.4716,-3.4756,-3.4769,-3.478,0,0,0,0,0,0,-3.4218,-3.426,-3.4252,-3.4336,-3.437,-3.4406,-3.4448,-3.4439,-3.448,-3.4474,-3.4477,-3.4486,-3.4559,-3.4577,-3.4537,-3.4664,-3.4625,-3.4635,-3.4651,-3.4663,-3.4673,-3.4667,-3.4502,0,0,0,0,0,-3.4236,-3.4287,-3.4319,-3.439,-3.4408,-3.4425,-3.4453,-3.4454,-3.4489,-3.4503,-3.4524,-3.4557,-3.4604,-3.4634,-3.4678,-3.4763,-3.477,-3.48,-3.481,-3.4818,-3.4827,-3.4872,-3.4886,-3.474,-3.474,-3.474,0,0,-3.4272,-3.43,-3.4332,-3.4397,-3.4424,-3.4475,-3.4437,-3.4493,-3.453,-3.451,-3.458,-3.4597,-3.4634,-3.4712,-3.4748,-3.4729,-3.4868,-3.4826,-3.4832,-3.4837,-3.488,-3.4894,-3.4906,-3.4744,-3.4744,-3.4743,0,0,-3.4364,-3.4391,-3.4453,-3.4481,-3.4522,-3.4532,-3.4547,-3.4585,-3.4596,-3.4666,-3.4652,-3.4695,-3.4775,-3.4802,-3.4826,-3.4928,-3.4915,-3.4942,-3.4993,-3.5038,-3.5049,-3.5059,-3.5096,-3.5109,-3.495,-3.495,-3.495,0,-3.4403,-3.4481,-3.4486,-3.4543,-3.4572,-3.4558,-3.462,-3.4646,-3.4698,-3.4718,-3.4696,-3.4796,-3.482,-3.4904,-3.4929,-3.4949,-3.4965,-3.4938,-3.5047,-3.5058,-3.5067,-3.5102,-3.5116,-3.4953,-3.4953,-3.4953,-3.4952,0,-3.4528,-3.4582,-3.4627,-3.468,-3.4713,-3.4773,-3.4785,-3.4818,-3.4816,-3.4828,-3.4899,-3.4927,-3.4977,-3.4996,-3.4994,-3.508,-3.5067,-3.5046,-3.5007,-3.5084,-3.5117,-3.513,-3.4958,-3.4957,-3.4956,-3.4955,0,0,-3.4644,-3.4699,-3.4715,-3.4739,-3.4783,-3.4824,-3.4882,-3.4932,-3.496,-3.4996,-3.5044,-3.5112,-3.5093,-3.512,-3.512,-3.5159,-3.5238,-3.5134,-3.5134,-3.5153,-3.5335,-3.5351,-3.5366,-3.5229,-3.5232,-3.5234,-3.5332,0,-3.474,-3.4844,-3.485,-3.4944,-3.4994,-3.498,-3.503,-3.5062,-3.5075,-3.5118,-3.5131,-3.518,-3.5151,-3.5167,-3.5205,-3.5221,-3.5275,-3.5213,-3.5273,-3.5276,-3.5266,-3.5384,-3.5401,-3.5492,-3.5345,-3.5347,-3.5348,0,-3.4866,-3.4908,-3.5008,-3.5045,-3.5066,-3.5111,-3.5157,-3.5198,-3.5233,-3.524,-3.527,-3.5265,-3.5323,-3.5281,-3.536,-3.5318,-3.5343,-3.5354,-3.5358,-3.5364,-3.5317,-3.5394,-3.5522,-3.5536,-3.5369,-3.5367,-3.5365,0,-3.4942,-3.5023,-3.5093,-3.5114,-3.5158,-3.519,-3.521,-3.5242,-3.5272,-3.5311,-3.533,-3.5375,-3.5399,-3.5434,-3.544,-3.5409,-3.5519,-3.5478,-3.5526,-3.5526,-3.555,-3.5549,-3.5685,-3.5565,-3.5565,-3.5564,-3.5564,0,-3.5049,-3.5111,-3.5128,-3.5171,-3.5239,-3.5244,-3.531,-3.5327,-3.5356,-3.5401,-3.5391,-3.5433,-3.5438,-3.5482,-3.5486,-3.5551,-3.5562,-3.5568,-3.5569,-3.557,-3.5569,-3.5587,-3.5581,-3.5568,-3.5567,-3.5567,-3.5566,0,-3.5146,-3.516,-3.5235,-3.5271,-3.5281,-3.533,-3.536,-3.54,-3.5412,-3.5469,-3.5483,-3.5501,-3.5551,-3.5561,-3.5619,-3.5622,-3.57,-3.5694,-3.5689,-3.5689,-3.5736,-3.5732,-3.5889,-3.5909,-3.5775,-3.5777,-3.5778,0,-3.5214,-3.5261,-3.5302,-3.5333,-3.5355,-3.5403,-3.5434,-3.5439,-3.5471,-3.5514,-3.5549,-3.5598,-3.5638,-3.5719,-3.5736,-3.5781,-3.5776,-3.5828,-3.5783,-3.5782,-3.5777,-3.5775,-3.578,-3.5837,-3.5838,-3.5839,-3.584,0,-3.5333,-3.5338,-3.5383,-3.5431,-3.5468,-3.5505,-3.554,-3.5565,-3.5575,-3.5611,-3.5663,-3.5694,-3.5754,-3.5803,-3.5848,-3.5866,-3.5855,-3.5854,-3.5868,-3.587,-3.5865,-3.5869,-3.5714,-3.5851,-3.585,-3.5849,-3.5849,-3.5848,-3.5418,-3.546,-3.5496,-3.5546,-3.5573,-3.5606,-3.5646,-3.5663,-3.5708,-3.5759,-3.5758,-3.5815,-3.5847,-3.5906,-3.5927,-3.5971,-3.5954,-3.5974,-3.5979,-3.5984,-3.5989,-3.5858,-3.5979,-3.5978,-3.5978,-3.5978,-3.5978,0,-3.5538,-3.556,-3.5606,-3.5657,-3.5696,-3.5683,-3.5721,-3.5755,-3.5805,-3.5837,-3.5877,-3.5936,-3.5984,-3.6005,-3.6051,-3.6081,-3.6077,-3.6093,-3.6092,-3.6096,-3.6001,-3.5985,-3.6096,-3.6096,-3.6096,-3.6096,-3.6096,-3.6096,-3.5605,-3.5674,-3.5683,-3.5765,-3.5786,-3.5844,-3.5867,-3.5897,-3.5922,-3.599,-3.6029,-3.6043,-3.607,-3.6118,-3.616,-3.6165,-3.6183,-3.6201,-3.6204,-3.6115,-3.6103,-3.6091,-3.6076,-3.6205,-3.6205,-3.6295,-3.6296,-3.6297]}]]